Temp
9 9 9 9 8 8 9 9 9 9 9 9 9 10 11 15 17 19 19 20 20 20 21 21 22 22 23 27 29 29 30 29 28 29 31 31 31 32 32 32 32 31 33 34 34 33 33
9 8 8 8 8 8 9 9 9 9 9 9 9 10 12 15 17 19 19 20 20 21 21 22 22 22 22 29 27 27 28 28 27 28 30 31 32 32 32 32 32 33 33 33 34 34 33
9 8 8 8 8 8 8 8 9 9 9 9 10 12 14 16 18 18 19 20 21 22 22 22 21 21 23 29 27 27 27 28 29 29 31 30 31 32 33 33 32 33 33 34 33 32 33
8 8 8 8 8 8 8 8 9 8 9 10 11 13 15 16 18 19 20 20 22 22 22 22 20 20 26 27 27 28 28 29 29 29 30 30 30 32 32 33 33 32 33 34 34 32 32
8 9 8 8 8 8 8 8 8 8 9 11 13 15 16 17 18 19 21 21 22 22 22 20 20 21 28 28 28 29 29 30 28 28 29 30 31 31 32 33 33 32 33 32 34 33 32
8 8 8 8 8 8 8 8 9 9 10 11 13 15 17 18 19 20 21 20 20 20 19 19 18 23 28 29 28 28 29 30 31 31 31 31 31 32 32 33 33 32 32 32 32 34 33
8 8 8 8 8 8 8 9 9 10 12 13 14 16 18 19 20 21 19 19 22 22 19 26 26 26 26 27 27 28 29 30 31 32 32 30 32 32 34 33 32 32 31 32 33 34 33
8 8 8 8 8 8 8 8 9 10 13 14 16 17 19 19 20 21 20 22 21 21 24 22 22 23 24 25 28 29 29 32 31 31 30 31 32 32 31 31 32 32 32 33 33 33 33
8 8 8 8 8 8 8 9 9 11 13 15 16 18 19 20 21 21 20 20 19 19 23 25 24 25 26 26 29 30 31 30 30 30 30 31 32 30 31 31 32 33 32 32 33 33 32
8 8 8 8 8 8 8 8 10 12 14 15 17 19 20 20 19 19 20 20 20 20 27 28 27 27 26 27 30 29 30 31 29 31 29 31 30 31 31 32 32 32 32 32 32 33 33
8 8 8 8 8 8 8 9 11 13 14 16 17 19 20 20 19 20 21 21 21 21 29 29 28 27 26 29 30 30 28 31 31 30 30 31 30 30 31 32 32 33 32 32 31 32 32
8 8 8 8 8 9 9 10 12 14 15 16 18 19 20 19 18 21 21 22 22 27 27 29 28 28 29 29 30 30 31 30 29 30 29 30 29 31 32 31 32 31 32 30 29 31 33
8 8 8 8 8 8 10 11 13 15 16 18 19 20 19 18 21 21 22 23 27 28 28 29 29 29 29 29 30 31 31 31 31 29 30 30 31 31 31 31 30 31 32 32 32 32 33
8 8 8 8 8 9 11 13 14 16 17 18 19 20 20 20 20 21 22 26 27 27 28 28 27 28 29 29 29 29 29 30 27 29 29 30 31 30 31 32 32 31 33 32 31 32 33
8 8 8 8 8 11 13 14 15 17 18 19 19 19 19 19 21 20 25 26 27 26 27 28 28 29 29 29 29 29 29 30 30 30 31 30 30 30 30 31 32 30 32 32 31 27 31
8 8 8 8 11 12 13 14 16 18 19 19 19 19 18 20 20 20 25 23 25 25 26 27 29 28 29 29 30 29 29 30 30 29 28 31 30 31 31 31 30 32 31 32 30 30 31
11 10 9 10 13 13 14 15 16 18 20 19 19 23 19 20 20 24 25 24 24 26 25 27 28 29 28 29 29 29 29 30 30 28 28 29 30 31 31 32 33 31 31 29 31 30 32
13 13 13 14 14 14 14 15 17 19 21 20 20 24 19 20 24 18 24 23 22 26 26 27 27 28 29 29 29 29 30 30 28 29 30 28 30 30 32 30 29 31 32 33 32 30 29
12 13 13 14 14 14 15 16 17 19 19 19 21 21 20 19 25 24 23 24 24 26 26 27 28 28 28 29 28 28 28 29 28 29 29 29 29 30 31 30 29 31 30 30 30 29 28
12 13 13 13 14 14 15 16 17 19 19 18 21 24 22 20 19 23 23 25 25 25 26 25 26 27 28 28 26 28 28 29 28 28 23 27 28 30 31 30 28 30 30 29 32 32 30
12 12 12 13 14 14 15 17 18 19 19 18 18 20 18 23 22 22 22 22 24 25 25 25 27 26 26 27 27 27 28 29 29 25 26 28 29 27 28 28 28 29 30 29 30 31 31
12 12 12 12 13 14 15 16 18 19 20 16 20 21 17 19 18 21 20 23 24 24 24 26 26 26 26 26 26 27 27 27 28 28 28 27 28 26 28 28 28 28 29 29 30 29 30
12 12 12 12 12 13 14 15 16 18 19 16 12 13 18 15 20 21 22 22 23 22 24 24 24 24 25 26 25 26 26 27 28 26 27 27 28 27 27 28 27 28 29 30 31 31 32
11 11 12 12 12 12 13 14 15 16 17 15 12 13 19 21 19 21 21 21 21 22 22 23 23 23 24 23 25 24 25 25 25 26 26 26 25 26 27 26 26 30 28 28 29 31 31
11 11 11 12 12 12 12 13 14 15 15 15 13 14 17 21 18 20 20 20 20 20 20 21 23 23 22 23 25 25 26 26 27 25 25 25 26 26 26 27 28 28 29 28 28 30 30
11 11 11 11 12 12 12 12 13 14 14 13 12 12 15 18 20 19 19 19 20 20 21 21 21 21 22 23 24 24 25 26 26 24 21 22 22 25 24 25 25 28 30 27 28 28 29
12 12 12 11 11 11 11 11 12 13 13 12 11 12 13 17 18 17 19 20 19 18 20 18 19 21 21 23 24 24 25 24 25 25 23 23 23 24 25 25 26 28 27 26 26 28 26
12 12 12 11 11 11 11 11 11 12 12 11 10 10 11 15 16 15 17 18 18 18 20 18 20 19 20 21 22 24 22 24 23 25 24 25 24 25 23 24 24 27 25 26 28 26 26
12 12 12 11 11 11 11 10 10 9 8 8 9 9 9 11 15 12 13 15 17 18 19 17 18 17 20 20 20 20 22 20 22 24 21 24 26 26 25 27 25 25 27 25 25 25 25
Height
821 819 817 816 814 812 810 809 806 804 801 798 795 793 790 788 786 784 782 781 779 778 776 775 774 773 772 772 767 763 760 764 769 771 771 772 775 776 781 779 777 781 766 758 754 757 759
820 818 817 815 813 811 809 807 804 802 799 796 793 791 789 787 785 783 781 779 779 777 776 774 774 774 774 776 765 764 762 764 767 770 770 771 770 770 774 776 781 771 765 761 756 757 760
821 818 816 814 812 810 808 806 803 799 795 793 791 788 786 785 784 783 781 778 776 776 775 774 774 774 775 767 765 766 767 768 769 770 770 771 771 773 771 774 768 768 774 763 761 762 765
820 818 815 813 810 808 805 803 800 798 795 792 790 788 786 784 782 780 778 776 774 773 773 774 774 775 770 763 764 765 767 768 770 770 771 770 771 771 773 769 770 778 775 786 768 766 766
819 817 815 812 810 807 804 802 800 797 794 791 788 786 784 782 780 778 775 772 772 772 773 774 775 775 767 762 762 762 764 765 767 770 771 772 772 775 774 781 787 786 800 795 781 766 770
818 816 813 811 809 806 803 800 797 794 792 790 787 785 782 780 777 774 772 771 772 774 774 775 775 777 761 763 760 761 762 764 765 768 772 774 776 780 783 785 807 804 800 797 797 773 771
817 814 812 810 807 804 802 798 795 792 789 787 785 783 781 778 775 773 772 773 777 776 775 768 768 768 764 762 759 759 761 763 765 768 780 779 784 790 781 782 783 787 795 796 787 771 774
816 813 811 810 807 804 801 797 794 790 787 785 783 780 778 776 773 772 771 771 774 777 773 768 768 768 766 765 765 759 761 766 771 782 782 786 790 778 779 782 783 785 793 790 781 773 779
815 813 811 808 805 802 799 795 792 789 786 784 781 779 776 773 771 772 772 774 773 774 775 767 765 765 763 764 763 761 760 765 774 784 785 788 781 779 782 784 787 785 792 791 791 780 774
814 812 809 806 803 800 798 794 791 788 785 782 779 777 774 772 774 772 773 773 770 771 775 770 765 761 762 761 764 758 759 762 775 781 785 783 777 782 784 786 783 791 778 783 787 789 799
814 811 808 805 802 799 796 793 789 786 783 780 777 774 773 772 771 772 773 770 769 771 793 764 765 759 761 763 761 761 759 760 775 779 781 783 782 786 785 780 778 782 776 783 785 789 791
813 810 806 803 800 796 793 790 787 783 780 777 773 771 771 770 771 771 770 769 771 780 799 769 762 765 766 763 762 759 760 760 766 776 778 778 773 774 772 771 771 774 780 787 792 790 800
812 809 806 802 798 795 791 788 784 781 777 773 770 769 769 770 770 769 768 769 780 786 770 775 771 764 765 768 766 763 766 772 778 794 791 782 776 768 768 778 776 778 783 802 806 804 803
812 809 805 801 798 794 790 786 782 778 773 770 768 767 767 768 768 768 767 773 790 781 777 767 770 768 771 769 769 769 773 776 778 777 790 792 792 773 764 769 775 779 776 795 820 811 795
812 808 805 801 796 792 789 784 779 773 769 766 766 767 767 767 767 768 769 783 782 780 771 772 770 773 775 770 769 772 775 774 768 769 783 789 788 764 764 761 762 780 784 771 792 812 804
812 808 805 801 796 793 788 782 775 770 766 765 765 767 770 768 769 769 773 790 782 775 769 770 777 773 780 774 772 772 775 766 767 766 766 769 786 763 761 759 766 765 766 785 790 812 814
813 809 805 801 797 793 787 781 773 768 764 764 765 766 772 771 770 770 780 783 780 767 769 771 772 774 774 774 773 775 774 765 761 766 766 769 775 771 762 762 764 773 775 784 779 788 791
815 811 807 803 798 793 787 780 773 767 764 765 765 771 773 772 774 790 782 782 777 768 764 767 766 767 769 770 771 773 772 766 759 759 768 767 770 779 765 759 758 758 760 761 779 795 794
817 813 809 805 800 794 788 781 773 767 764 764 769 774 774 772 780 782 780 778 775 770 769 767 768 765 765 769 779 773 770 758 759 759 765 766 776 780 769 766 763 763 763 764 769 773 790
818 814 810 805 800 795 788 782 775 769 766 766 770 775 776 777 784 781 782 779 777 769 771 770 769 764 768 773 773 775 770 761 758 760 767 764 773 768 778 774 771 771 766 767 759 768 775
820 816 812 807 802 796 790 784 777 771 768 768 775 784 785 780 783 783 784 785 782 779 771 769 770 774 776 778 777 776 770 764 758 763 764 763 772 777 768 768 767 765 765 766 767 758 765
822 818 814 809 804 798 793 787 781 774 770 772 777 781 787 789 790 787 790 783 783 781 779 773 776 774 773 776 775 779 775 772 768 760 761 765 774 776 773 767 770 771 763 762 758 760 759
824 820 816 811 807 802 796 791 785 779 774 779 787 788 785 797 789 786 784 784 784 784 775 774 776 778 776 771 770 768 767 764 763 771 768 770 768 776 781 767 772 773 756 751 747 743 741
825 821 817 813 809 804 800 795 790 786 783 784 788 789 785 786 790 785 785 786 784 784 784 776 776 780 772 769 765 765 765 763 765 763 763 770 775 773 775 776 792 750 743 745 743 733 732
825 822 819 815 812 807 802 798 794 791 789 788 789 790 788 785 789 785 785 785 783 783 784 780 773 772 772 770 772 772 765 765 757 760 761 762 766 771 779 774 757 751 743 743 744 738 730
825 822 819 816 813 809 805 801 798 795 793 791 791 791 791 788 781 782 783 785 784 783 781 777 774 773 770 772 774 782 778 767 766 767 768 768 771 770 780 781 778 745 727 732 733 749 729
824 821 819 816 813 810 807 803 800 797 795 793 793 792 792 788 780 783 782 779 781 784 782 783 778 773 772 772 775 774 771 762 767 764 768 767 772 771 768 771 755 734 734 735 757 747 732
823 820 818 816 814 811 808 805 801 798 795 794 794 793 794 789 781 780 779 779 781 781 780 782 780 779 777 777 773 765 770 760 763 751 753 755 762 763 769 771 770 728 738 745 730 729 730
821 819 817 815 813 811 808 805 802 799 797 795 795 794 793 794 782 780 778 777 777 777 781 783 781 782 775 775 774 772 767 767 761 758 755 759 744 745 747 741 729 728 724 726 727 731 729
Wind_Speed
12 12 12 13 13 13 14 14 13 14 13 14 13 13 12 12 11 10 9 10 11 11 11 11 9 9 3 1 3 6 5 21 22 13 8 5 4 2 3 1 2 7 8 9 11 7 3
12 12 13 13 13 14 14 16 16 15 14 15 14 14 13 12 11 10 10 11 11 11 10 9 7 5 2 2 2 2 9 22 17 12 6 5 2 2 5 2 2 5 12 14 6 3 2
11 12 13 14 14 15 15 16 15 16 17 16 15 14 13 12 11 11 11 12 12 10 8 6 3 2 1 5 8 12 10 10 14 11 3 5 3 2 2 6 3 5 6 3 8 2 2
11 12 13 14 15 16 16 17 16 17 16 16 15 14 13 12 12 13 14 13 12 9 5 3 1 1 5 2 6 9 5 7 9 13 6 4 2 3 3 4 2 5 2 5 8 2 3
12 13 13 14 14 15 16 17 17 16 16 16 15 14 14 13 13 15 14 12 4 2 4 3 2 1 4 4 3 2 10 5 9 8 6 3 2 1 1 2 2 6 3 6 7 1 2
13 13 14 14 14 15 16 17 18 17 16 16 14 13 13 14 15 16 9 5 9 7 6 3 1 3 3 1 2 3 3 8 2 6 5 4 2 2 2 3 6 2 4 3 6 6 6
13 13 14 14 15 16 17 18 18 17 17 16 15 13 13 14 16 11 6 5 2 2 1 3 1 3 4 9 3 1 3 8 3 2 5 2 5 8 9 4 4 2 3 9 7 8 9
13 14 14 14 15 15 18 17 17 17 17 16 15 13 14 14 14 4 5 3 3 1 3 3 7 6 6 3 2 1 6 6 4 7 2 3 9 7 2 6 4 2 6 10 5 6 6
14 14 14 15 15 17 19 18 17 17 16 15 14 14 13 14 6 4 6 6 4 4 1 2 3 3 1 7 3 4 7 4 3 7 6 10 2 5 5 4 5 6 5 8 8 9 3
14 14 15 15 16 17 19 17 18 16 15 14 14 14 12 12 3 2 1 5 8 11 2 2 1 2 3 2 2 2 6 3 2 9 6 6 2 5 4 6 6 14 4 5 7 7 5
15 15 15 16 16 17 19 19 18 16 15 15 15 13 10 8 4 2 1 12 4 3 3 3 3 3 2 2 2 2 3 2 7 6 6 4 3 6 12 14 8 9 4 5 3 3 4
15 15 15 16 17 18 19 20 18 16 15 15 15 11 8 3 3 2 8 3 3 2 3 3 3 4 5 1 2 2 3 4 3 4 2 5 1 4 3 4 8 4 3 2 2 2 5
16 16 16 16 18 21 20 20 18 17 17 17 12 8 5 3 1 3 6 2 1 2 2 3 2 1 2 4 4 4 6 7 5 4 6 2 10 5 4 7 3 5 4 4 6 6 7
17 17 17 18 19 20 20 19 20 19 17 15 6 3 2 2 0 5 1 1 3 1 2 1 2 3 3 0 1 1 4 7 2 3 2 2 3 7 7 13 6 8 10 6 10 8 7
18 18 18 19 19 21 20 22 24 20 17 6 2 4 4 6 2 2 1 2 2 2 2 4 1 3 2 1 1 2 3 3 5 11 8 5 4 1 6 4 9 6 6 1 3 1 4
19 19 19 20 20 22 22 26 26 18 13 3 4 3 6 7 5 1 2 2 2 3 3 1 1 0 2 2 2 1 2 2 1 7 3 3 6 2 2 5 3 5 9 4 1 6 9
21 20 20 21 22 23 26 30 27 18 9 3 3 3 6 2 5 3 2 1 3 5 5 2 1 2 1 1 1 1 1 1 2 2 5 4 4 2 2 6 8 4 4 3 2 2 6
21 22 23 24 25 27 29 31 30 20 7 3 2 2 3 7 1 1 1 1 3 3 2 3 2 2 3 3 0 1 2 1 3 1 1 2 1 5 9 2 2 1 5 5 5 6 2
20 20 22 23 25 27 29 31 33 18 11 2 2 2 2 4 2 2 2 2 2 4 4 2 1 3 1 2 1 1 1 0 6 1 1 5 3 4 3 4 3 4 4 4 3 2 7
20 21 23 24 26 29 30 30 33 20 12 4 2 2 2 3 2 1 2 2 4 2 2 3 2 2 1 1 2 1 1 2 5 3 4 3 2 5 6 2 1 3 4 4 5 5 6
20 21 23 24 26 29 30 30 30 25 13 4 3 2 2 2 2 1 1 2 2 4 2 4 3 7 3 1 1 1 1 4 1 3 2 1 3 2 5 4 4 3 3 5 8 5 7
20 21 23 25 26 28 29 30 28 27 9 8 2 0 1 2 0 2 1 2 1 2 2 2 3 7 4 0 1 0 2 2 3 2 1 1 3 1 5 1 5 7 8 10 13 9 13
20 21 22 23 25 27 27 27 29 27 13 6 3 1 1 2 1 2 2 1 3 2 3 4 3 6 5 3 5 8 8 10 9 4 4 3 4 4 11 5 6 13 12 14 11 10 11
19 20 21 23 24 26 27 26 24 24 18 7 4 1 0 1 2 2 1 1 5 4 4 5 7 3 2 9 8 4 6 10 10 12 10 6 4 4 10 5 16 10 4 7 13 11 12
17 18 20 21 23 24 25 25 22 19 15 10 5 1 1 1 2 5 4 4 4 4 4 5 6 2 6 4 4 6 5 5 8 7 10 10 8 8 8 11 14 10 5 6 9 13 7
16 16 17 19 21 23 24 24 21 18 15 6 9 5 1 1 4 1 1 1 2 2 3 3 2 6 1 1 3 4 5 3 4 3 4 5 4 7 4 9 13 5 13 2 1 13 5
15 15 16 17 19 20 22 22 19 18 13 5 5 3 0 2 2 5 4 2 2 2 2 2 5 3 2 3 5 6 7 3 6 6 5 4 3 12 11 9 6 10 5 2 9 4 4
14 14 15 15 16 17 19 21 20 18 15 9 1 5 2 2 5 6 4 6 3 2 2 2 4 2 1 4 3 4 4 4 3 5 6 10 7 5 4 7 12 9 7 8 2 0 5
13 14 14 14 14 16 17 17 19 16 13 11 1 3 6 4 4 4 8 11 7 4 4 2 2 2 2 2 2 2 4 2 3 5 2 6 9 7 9 6 1 8 1 3 3 6 10
Wind_Direction
354 353 352 351 352 352 350 348 347 347 343 344 341 337 335 333 334 333 332 330 326 323 326 330 333 338 352 246 263 335 327 171 173 168 171 169 171 212 288 187 215 257 292 312 272 294 342
350 351 349 347 346 347 347 345 344 344 344 342 339 338 336 335 334 333 329 323 317 312 316 318 327 347 5 249 324 86 140 161 177 184 184 178 232 249 294 258 249 239 292 299 331 305 106
349 347 347 345 344 343 343 344 345 343 341 342 340 340 338 339 334 331 323 316 305 298 297 294 312 25 129 241 139 116 135 168 188 189 189 224 225 223 311 305 334 260 315 358 28 69 112
351 347 346 344 342 339 341 342 345 343 342 341 340 344 343 340 334 329 323 312 296 288 268 252 155 44 250 196 206 246 200 194 200 213 229 296 225 275 254 303 324 12 35 3 8 73 22
349 348 345 344 342 341 339 340 341 342 342 344 346 345 340 337 332 326 325 313 311 136 160 142 62 3 260 296 245 203 196 186 183 211 240 66 166 229 232 334 358 23 350 348 348 60 107
349 347 343 343 342 341 340 337 340 343 344 344 346 342 337 334 329 328 339 109 111 110 119 104 72 268 257 96 315 320 182 168 141 127 134 170 134 179 136 215 274 309 315 346 319 323 301
350 344 346 344 341 342 336 338 340 343 345 344 342 340 337 333 330 337 122 124 202 144 190 239 17 311 324 322 336 117 135 135 120 94 200 68 213 210 215 201 160 177 284 306 308 311 312
345 346 344 343 340 338 340 338 341 344 344 341 337 336 335 336 336 10 79 95 99 43 312 244 261 274 264 283 295 193 153 166 173 208 155 191 232 215 165 187 202 246 302 309 295 298 318
348 347 345 339 341 337 338 335 344 343 342 338 334 332 333 340 353 52 83 122 330 176 262 296 208 230 244 177 207 189 179 131 152 191 198 228 165 165 206 188 216 243 265 294 293 321 254
349 345 343 343 339 339 339 340 342 342 341 336 329 326 330 344 93 16 112 337 322 175 25 49 153 130 149 227 148 208 188 154 136 217 170 246 188 211 214 234 215 255 205 267 297 328 313
349 348 347 341 340 340 342 342 342 343 340 329 322 318 326 336 302 193 314 339 126 188 114 6 100 126 141 204 118 88 156 98 165 161 194 195 189 198 228 235 202 261 159 285 308 274 290
353 351 346 343 341 345 342 344 344 342 336 329 319 311 316 328 265 230 318 358 162 241 89 76 122 152 165 178 107 119 153 79 93 133 243 258 260 232 229 186 191 121 197 109 112 222 258
358 355 351 346 346 348 347 347 348 343 337 329 314 301 280 220 160 303 331 149 217 58 323 35 35 169 169 159 189 181 159 182 192 183 230 254 233 224 191 234 191 188 218 243 237 228 259
3 357 355 349 349 349 355 355 351 342 335 331 326 343 63 185 169 2 48 162 89 53 8 9 23 88 142 85 115 106 149 173 190 149 160 292 264 189 170 219 228 205 228 229 240 241 254
7 1 1 354 355 357 3 358 350 345 341 346 41 80 58 350 238 322 110 100 104 190 310 341 64 92 86 113 121 161 200 218 219 197 209 191 252 225 201 186 211 163 202 299 169 94 256
15 10 5 3 9 7 4 1 354 351 347 15 124 106 23 70 79 54 87 140 229 228 311 247 106 15 129 41 164 56 181 140 90 210 244 229 260 231 67 153 63 244 140 177 214 225 249
20 21 16 16 14 10 11 8 3 3 357 89 109 99 1 11 359 52 95 225 275 256 228 228 159 129 131 131 107 87 66 108 17 91 183 170 236 177 246 213 198 162 190 63 136 265 255
21 21 21 20 17 15 12 10 10 9 15 94 95 89 3 341 62 30 87 264 315 307 59 256 246 229 186 183 216 195 151 53 360 175 347 182 205 246 242 76 343 212 195 193 244 199 227
19 18 18 17 15 13 13 13 12 14 33 68 74 83 331 343 90 54 331 296 279 331 347 4 271 235 194 160 229 228 319 38 18 53 158 179 201 290 206 140 138 226 198 186 145 153 187
18 18 18 16 15 14 15 15 13 15 20 81 120 123 56 61 20 67 11 5 349 337 260 342 333 87 132 117 38 172 310 314 359 65 75 172 212 249 263 308 300 231 183 178 224 203 173
19 19 19 17 16 16 16 17 15 14 21 83 18 79 8 135 113 90 294 336 326 351 7 357 84 45 6 163 124 187 301 316 211 94 94 265 281 249 268 261 245 255 248 209 226 242 228
19 18 17 18 17 17 17 17 19 16 28 69 65 88 78 87 47 176 170 204 219 340 309 9 62 360 355 255 74 173 353 239 296 315 69 90 282 278 288 268 247 267 260 257 240 252 247
17 17 17 16 16 16 17 18 19 24 33 77 38 81 295 44 98 198 208 161 147 351 241 257 41 342 301 286 313 291 272 267 266 280 285 271 234 226 266 299 281 264 247 234 233 219 224
12 12 13 15 15 14 15 17 20 24 38 71 53 59 15 126 241 214 200 246 260 279 261 293 310 244 354 320 283 258 244 252 245 246 228 237 226 220 264 251 255 282 259 267 238 241 230
2 5 8 11 13 14 14 16 19 23 30 59 43 28 69 283 242 257 224 222 269 278 246 255 274 312 318 304 273 268 250 251 237 240 225 226 232 238 245 246 273 271 227 204 200 249 246
350 354 358 3 7 10 10 11 15 21 26 51 43 53 13 291 212 174 265 207 242 265 279 245 309 314 231 206 205 238 245 257 232 194 72 168 210 236 201 251 257 266 238 216 226 266 248
337 344 349 354 359 3 5 6 9 8 16 39 43 35 250 256 234 185 203 189 176 193 256 318 343 341 348 202 223 233 247 217 232 224 185 172 185 223 226 245 258 255 189 161 226 275 135
329 332 340 346 350 355 359 3 1 3 7 21 6 40 10 257 270 214 231 218 168 202 253 26 292 169 248 221 227 217 232 211 247 245 207 201 196 205 199 239 259 182 142 224 55 48 284
335 335 335 340 343 345 351 355 356 357 4 8 20 320 317 243 297 257 251 246 242 265 249 197 312 277 274 264 240 288 242 237 257 250 155 238 230 232 212 224 357 204 45 98 28 296 282